{"data":{"norad_id":57515,"epoch":"2026-05-25T03:46:11.629056Z","epoch_age_seconds":61437,"freshness":"FRESH","line1":"1 57515U 23113W   26145.15707904  .00000548  00000+0  29433-4 0  9995","line2":"2 57515  43.0031 303.9123 0001244 278.3373  81.7338 15.27578621155376","mean_motion":15.27578621,"eccentricity":0.0001244,"inclination_deg":43.0031,"raan_deg":303.9123,"arg_perigee_deg":278.3373,"mean_anomaly_deg":81.7338,"bstar":2.9433e-5,"rev_number":15537,"period_min":94.266833811626,"perigee_km":482.19969320083,"apogee_km":483.90675732887,"semimajor_km":6861.1902252649,"source":"CELESTRAK","updated_at":"2026-05-25T13:38:18.331114Z"}}